#timestamp,LO_Frequency,Hit 
1498104015.7,286047001.9,N
1498104035.6,286047002.0,N
1498104055.4,286047000.5,N
1498104075.2,286047000.2,N
1498104095.1,286047001.5,N
1498104096.0,286047001.5,N
1498104115.8,286047002.4,N
1498104135.6,286047001.0,N
1498104155.5,286046998.4,N
1498104175.3,286046998.9,N
1498104195.1,286046997.9,N
1498104215.9,286046996.5,N
1498104235.7,286046999.3,N
1498104255.5,286047001.1,N
1498104275.4,286047000.6,N
1498104295.2,286047000.7,N
1498104315.0,286047000.1,N
1498104315.9,286047000.1,N
1498104335.7,286047000.0,N
1498104355.6,286047000.6,N
1498104375.4,286047000.2,N
1498104395.2,286046999.8,N
1498104415.1,286047002.3,N
1498104416.0,286047002.3,N
1498104435.8,286047002.5,N
1498104455.6,286047002.2,N
1498104475.5,286047002.3,N
1498104495.3,286047002.0,N
1498104515.1,286047001.5,N
1498104535.9,286047002.3,N
1498104555.7,286047001.7,N
1498104575.5,286047002.2,N
1498104595.4,286047002.4,N
1498104615.2,286047002.7,N
1498104635.0,286047002.3,N
1498104635.9,286047002.3,N
1498104655.8,286047002.1,N
1498104675.6,286047001.8,N
1498104695.4,286047002.2,N
1498104715.2,286047001.4,N
1498104735.1,286047001.3,N
1498104736.0,286047001.3,N
1498104755.8,286047001.6,N
1498104775.6,286047002.0,N
1498104795.5,286047002.4,N
1498104815.3,286047002.5,N
1498104835.1,286047004.1,N
1498104855.9,286047005.6,N
1498104875.7,286047005.4,N
1498104895.5,286047004.8,N
1498104915.4,286047007.1,Y
1498104935.2,286047005.7,N
1498104955.0,286047003.3,N
1498104955.9,286047003.3,N
1498104975.8,286047001.5,N
1498104995.6,286047002.0,N
1498105015.4,286047002.0,N
1498105035.3,286047004.3,N
1498105055.1,286047002.3,N
1498105056.0,286047002.3,N
1498105075.8,286047002.5,N
1498105095.6,286046999.7,N
1498105115.5,286047000.0,N
1498105135.3,286047002.4,N
1498105155.1,286047002.7,N
1498105175.9,286047002.8,N
1498105195.7,286047000.4,N
1498105215.5,286046999.9,N
1498105235.4,286047000.2,N
1498105255.2,286047000.9,N
1498105275.0,286047000.6,N
1498105275.9,286047000.6,N
1498105295.8,286046998.8,N
1498105315.6,286046998.3,N
1498105335.4,286046999.2,N
1498105355.2,286047000.8,N
1498105375.1,286047000.1,N
1498105376.0,286047000.1,N
1498105395.8,286047004.2,N
1498105415.6,286047003.5,N
1498105435.5,286047001.5,N
1498105455.3,286047000.4,N
1498105475.1,286047000.3,N
1498105495.9,286047000.6,N
1498105515.7,286047000.6,N
1498105535.5,286046998.1,N
1498105555.4,286046998.2,N
1498105575.2,286046998.3,N
1498105595.0,286046998.3,N
1498105595.9,286046998.3,N
1498105615.8,286046999.0,N
1498105635.6,286046999.3,N
1498105655.4,286046998.6,N
1498105675.2,286047000.0,N
1498105695.1,286046999.9,N
1498105696.0,286046999.9,N
1498105715.8,286047001.0,N
1498105735.6,286047000.7,N
1498105755.5,286046998.2,N
1498105775.3,286046998.8,N
1498105795.1,286046998.9,N
1498105815.9,286046999.1,N
1498105835.7,286046997.0,N
1498105855.5,286046995.3,N
1498105875.4,286046994.2,N
1498105895.2,286046994.3,N
1498105915.0,286046993.6,N
1498105915.9,286046993.6,N
1498105935.7,286046993.6,N
1498105955.6,286046993.9,N
1498105975.4,286046994.6,N
1498105995.2,286046996.1,N
1498106015.1,286046993.3,N
1498106016.0,286046993.3,N
1498106035.8,286046993.9,N
1498106055.6,286046997.5,N
1498106075.5,286046997.6,N
1498106095.3,286046998.0,N
1498106115.1,286046997.4,N
1498106135.9,286046998.7,N
1498106155.7,286046999.2,N
1498106175.5,286046995.2,N
1498106195.3,286046997.8,N
1498106215.2,286046995.4,N
1498106235.0,286046997.9,N
1498106235.9,286046997.9,N
1498106255.7,286046993.9,N
1498106275.6,286046993.8,N
1498106295.4,286046993.4,N
1498106315.2,286046995.5,N
1498106335.1,286046993.8,N
1498106336.0,286046993.8,N
1498106355.8,286046993.5,N
1498106375.6,286046994.5,N
1498106395.5,286046994.6,N
1498106415.3,286046993.3,N
1498106435.1,286046993.5,N
1498106455.9,286046994.8,N
1498106475.7,286046994.3,N
1498106495.5,286046992.1,N
1498106515.3,286046994.1,N
1498106535.2,286046996.3,N
1498106555.0,286046995.4,N
1498106555.9,286046995.4,N
1498106575.7,286046994.9,N
1498106595.6,286046997.5,N
1498106615.4,286046995.4,N
1498106635.2,286046995.1,N
1498106655.1,286046996.0,N
1498106656.0,286046996.0,N
1498106675.8,286046994.0,N
1498106695.6,286046993.7,N
1498106715.5,286046996.2,N
1498106735.3,286046993.5,N
1498106755.1,286046993.7,N
1498106775.9,286046995.5,N
1498106795.7,286046996.0,N
1498106815.5,286046993.5,N
1498106835.3,286046994.7,N
1498106855.2,286046994.3,N
1498106875.0,286046993.9,N
1498106875.9,286046993.9,N
1498106895.7,286046993.5,N
1498106915.6,286046996.4,N
1498106935.4,286046994.2,N
1498106955.2,286046993.5,N
1498106975.1,286046995.8,N
1498106976.0,286046995.8,N
1498106995.8,286046997.9,N
1498107015.6,286046993.5,N
1498107035.5,286046994.0,N
1498107055.3,286046996.0,N
1498107075.1,286046996.0,N
1498107095.9,286046993.9,N
1498107115.7,286046991.8,Y
1498107135.5,286046995.7,N
1498107155.4,286046993.3,N
1498107175.2,286046996.3,N
1498107195.0,286046993.6,N
1498107195.9,286046993.6,N
1498107215.8,286046994.4,N
1498107235.6,286046994.5,N
1498107255.4,286046994.8,N
1498107275.2,286046994.7,N
1498107295.1,286046992.1,Y
1498107296.0,286046992.1,Y
1498107315.8,286046999.9,N
1498107335.7,286047002.6,N
1498107355.5,286047001.8,N
1498107375.3,286047001.8,N
1498107395.1,286047004.0,N
1498107415.9,286047004.4,N
1498107435.7,286047003.6,N
1498107455.5,286047003.7,N
1498107475.4,286047004.2,N
1498107495.2,286047004.2,N
1498107515.0,286047004.4,N
1498107515.9,286047004.4,N
1498107535.8,286047003.9,N
1498107555.6,286047001.6,N
1498107575.4,286047001.6,N
1498107595.3,286047003.8,N
